• Join FlightAware (Why Join?)
  • Login
  • US Flag 
06:59AM EST


 

Airport Tracker/Info


-or-


 

Live Flight TrackerFlight Track Log ✈ N500CD ✈ 04-Jun-2014 ✈ KRUQ - KLCQ

Flight Track Log - Related Links

Times and Time Zones

All times are in EDT time to prevent confusion due to time zone crossing. See the N500CD flight status page for this flight to view local times or setup timezone preferences in your user account.

Time Position Orientation Groundspeed Altitude Reporting Facility
EDT Latitude Longitude Course Direction KTS MPH feet Rate Location/Type
03:21PM 35.6094 -80.5189 174° South 151 174 2,500  Level Atlanta Center
03:22PM 35.5675 -80.5131 174° South 159 183 4,100 1,860 Climbing Atlanta Center
03:23PM 35.5339 -80.5092 175° South 212 244 5,500 2,280 Climbing Atlanta Center
03:24PM 35.4836 -80.4986 170° South 212 244 8,000 2,040 Climbing Atlanta Center
03:25PM 35.4333 -80.4906 173° South 195 224 9,600 1,500 Climbing Atlanta Center
03:26PM 35.3817 -80.5108 198° South 190 219 11,000 1,380 Climbing Atlanta Center
03:27PM 35.3261 -80.5361 200° South 203 234 12,400 1,380 Climbing Atlanta Center
03:28PM 35.2664 -80.5639 201° Southwest 221 254 13,800 1,320 Climbing Atlanta Center
03:29PM 35.2044 -80.5869 197° South 231 266 15,100 1,260 Climbing Atlanta Center
03:30PM 35.1467 -80.6122 200° South 231 266 16,400 1,200 Climbing Atlanta Center
03:31PM 35.0850 -80.6403 200° South 231 266 17,600 1,140 Climbing Atlanta Center
03:33PM 34.9356 -80.7022 199° South 225 259 20,300 1,140 Climbing Jacksonville Center
03:34PM 34.8714 -80.7267 197° South 231 266 21,400 1,140 Climbing Jacksonville Center
03:35PM 34.8092 -80.7561 201° Southwest 236 272 22,600 1,080 Climbing Jacksonville Center
03:36PM 34.7450 -80.7803 197° South 246 283 23,600 960 Climbing Jacksonville Center
03:37PM 34.6789 -80.8097 200° South 246 283 24,600 960 Climbing Jacksonville Center
03:38PM 34.6125 -80.8417 202° Southwest 253 291 25,600 900 Climbing Jacksonville Center
03:39PM 34.5442 -80.8658 196° South 253 291 26,500 900 Climbing Jacksonville Center
03:40PM 34.4756 -80.8928 198° South 253 291 27,500 900 Climbing Jacksonville Center
03:41PM 34.4094 -80.9194 198° South 258 297 28,400 840 Climbing Jacksonville Center
03:42PM 34.3367 -80.9486 198° South 267 307 29,200 720 Climbing Jacksonville Center
03:43PM 34.2725 -80.9778 201° Southwest 267 307 29,900 360 Climbing Jacksonville Center
03:44PM 34.2000 -81.0069 198° South 267 307 30,000  Climbing Jacksonville Center
03:45PM 34.1150 -81.0389 197° South 289 333 30,000  Level Jacksonville Center
03:46PM 34.0319 -81.0758 200° South 309 356 30,000  Level Jacksonville Center
03:47PM 33.9469 -81.1100 198° South 319 367 30,000  Level Jacksonville Center
03:48PM 33.8578 -81.1469 199° South 331 381 30,000  Level Jacksonville Center
03:49PM 33.7725 -81.1811 198° South 331 381 30,000  Level Jacksonville Center
03:50PM 33.6814 -81.2178 199° South 336 387 30,000  Level Jacksonville Center
03:51PM 33.5961 -81.2544 200° South 336 387 30,000  Level Jacksonville Center
03:52PM 33.5069 -81.2908 199° South 336 387 30,000  Level Jacksonville Center
03:53PM 33.4197 -81.3272 199° South 336 387 30,000  Level Jacksonville Center
03:54PM 33.3283 -81.3611 197° South 342 394 30,000  Level Jacksonville Center
03:55PM 33.2431 -81.3925 197° South 342 394 30,000  Level Jacksonville Center
03:56PM 33.1539 -81.4336 201° Southwest 342 394 30,000  Level Jacksonville Center
03:57PM 33.0644 -81.4672 197° South 342 394 30,000  Level Jacksonville Center
03:58PM 32.9731 -81.5058 200° South 342 394 30,000  Level Jacksonville Center
03:59PM 32.8858 -81.5394 198° South 342 394 30,000  Level Jacksonville Center
04:00PM 32.8006 -81.5728 198° South 347 399 30,000  Level Jacksonville Center
04:01PM 32.7133 -81.6061 198° South 342 394 30,000  Level Jacksonville Center
04:02PM 32.6156 -81.6469 199° South 337 388 30,000  Level Jacksonville Center
04:03PM 32.5239 -81.6828 198° South 342 394 30,000  Level Jacksonville Center
04:04PM 32.4450 -81.7133 198° South 347 399 30,000  Level Jacksonville Center
04:05PM 32.3408 -81.7542 198° South 342 394 30,000  Level Jacksonville Center
04:06PM 32.2597 -81.7844 198° South 342 394 30,000 -480 Level Jacksonville Center
04:07PM 32.1536 -81.8275 199° South 358 412 29,100 -900 Descending Jacksonville Center
04:08PM 32.0581 -81.8656 199° South 363 418 28,200 -600 Descending Jacksonville Center
04:09PM 31.9686 -81.8983 197° South 368 423 28,000 -120 Descending Jacksonville Center
04:10PM 31.8644 -81.9386 198° South 363 418 28,000  Level Jacksonville Center
04:11PM 31.7831 -81.9686 197° South 357 411 28,000  Level Jacksonville Center
04:12PM 31.6811 -82.0064 198° South 357 411 28,000 -60 Level Jacksonville Center
04:13PM 31.5875 -82.0486 201° Southwest 362 417 27,900 -540 Descending Jacksonville Center
04:14PM 31.4917 -82.0861 198° South 369 425 27,000 -960 Descending Jacksonville Center
04:15PM 31.3917 -82.1258 199° South 363 418 26,000 -1,080 Descending Jacksonville Center
04:16PM 31.2958 -82.1631 198° South 370 426 24,900 -1,200 Descending Jacksonville Center
04:17PM 31.2022 -82.1956 197° South 364 419 23,600 -1,260 Descending Jacksonville Center
04:18PM 31.1103 -82.2300 198° South 364 419 22,400 -1,200 Descending Jacksonville Center
04:19PM 31.0186 -82.2647 198° South 359 413 21,200 -1,200 Descending Jacksonville Center
04:20PM 30.9269 -82.2992 198° South 359 413 20,000 -1,200 Descending Jacksonville Center
04:21PM 30.8375 -82.3336 198° South 354 407 18,800 -1,380 Descending Jacksonville Center
04:22PM 30.7478 -82.3681 198° South 342 394 17,300 -1,260 Descending Jacksonville Center
04:23PM 30.6581 -82.3975 196° South 342 394 16,300 -1,740 Descending Jacksonville Center
04:24PM 30.5725 -82.4317 199° South 342 394 13,900 -2,700 Descending Jacksonville Center
04:25PM 30.4956 -82.4633 200° South 327 376 11,000 -3,000 Descending Jacksonville Center
04:26PM 30.4225 -82.4878 196° South 299 344 7,900 -2,940 Descending Jacksonville Center
04:27PM 30.3517 -82.5097 195° South 283 326 5,200 -2,760 Descending Jacksonville Center
04:28PM 30.2847 -82.5244 191° South 263 303 2,400 -2,100 Descending Jacksonville Center
04:29PM 30.2222 -82.5319 186° South 244 281 1,100 -900 Descending Jacksonville Center
04:30PM 30.1847 -82.5369 187° South 215 247 600 -540 Descending Jacksonville Center
04:33PM 30.1667 -82.5667 139° Southeast  Level FlightAware Approximate